Location: Niagara
(43.2500°N, 79.0670°W)
Time: 20:35:16
(UTC-04:00)

ISS - Pass Details

Date: 16 October 2017
Orbit: 401 x 408 km, 51.6° (Epoch: 23 October)

Event Time Altitude Azimuth Distance (km) Brightness Sun altitude
Rises 19:17:06 0° 295° (WNW) 2,324 1.2 -9.1°
Reaches altitude 10° 19:19:20 10° 284° (WNW) 1,462 0.4 -9.5°
Maximum altitude 19:22:12 28° 223° (SW) 792 -1.8 -10.0°
Drops below altitude 10° 19:25:04 10° 162° (SSE) 1,457 -1.2 -10.6°
Sets 19:27:18 0° 150° (SSE) 2,314 -0.3 -11.0°
